[[{"header":{"parameterUnit":"m.s-1","parameterCategory":1,"la1":30.2991,"la2":30.254,"lo1":-89.0895,"lo2":-89.0444,"dy":0.0017,"dx":0.0017,"nx":28,"ny":28,"refTime":"2025-03-08T03:00:00:Z","depth":0,"parameterNumber":2,"parameterNumberName":"U-component_of_WINDS"},"data":[0,0,0,0,0,0,0,0,0,0,0,0,0,0,0,0,0,0,0,0,0,0,0,0,0,0,0,0,0,0,0,0,0,0,0,0,0,0,0,0,0,0,0,0,0,0,0,0,0,0,0,0,0,0,0,0,0,0,6.6101,6.6101,0,6.6089,6.6088,6.6088,6.5923,6.5919,6.5915,6.5911,6.59,6.5904,6.5908,0,0,0,0,0,0,0,0,0,0,0,0,0,6.5988,6.5991,6.6101,6.6101,6.6101,6.6089,6.6088,6.6088,6.5924,6.5919,6.5914,6.5909,6.5899,6.5904,6.5908,0,0,0,0,0,0,0,0,0,0,0,0,0,6.6013,6.5992,6.6102,6.6018,6.601,6.6089,6.6088,6.6088,6.5925,6.5919,6.5912,6.5906,6.5898,6.5903,6.5909,6.6068,0,0,6.5925,6.5927,0,0,0,0,0,0,0,0,6.6011,6.6017,6.603,6.6023,6.6015,6.6001,6.6044,6.6081,6.5926,6.5957,6.5911,6.5903,6.5939,6.5941,6.5952,6.6067,6.6067,6.5926,6.5929,6.5931,6.5933,0,0,0,0,0,0,0,6.601,6.6016,6.6096,6.603,6.6021,6.5982,6.5978,6.6051,6.5984,6.5954,6.5942,6.5943,6.5934,6.5947,6.5951,6.6067,6.5925,6.593,6.5934,6.5936,6.6314,6.6321,0,0,0,0,0,0,6.6019,6.6016,6.6097,6.6096,6.5998,6.5989,6.5985,6.6012,6.5982,6.5972,6.5948,6.5935,6.5941,6.5945,6.595,6.6136,6.5931,6.5936,6.5939,6.6308,6.6316,6.6323,0,0,0,0,0,0,6.6017,6.6028,6.6097,6.6053,6.6059,6.5998,6.6029,6.6015,6.6028,6.5978,6.5965,6.5974,6.5936,6.5942,6.604,6.6133,6.5939,6.5944,6.63,6.631,6.6319,6.6509,0,0,0,0,0,0,6.6015,6.6028,6.6087,6.6055,6.6062,6.6187,6.6035,6.6019,6.6038,6.602,6.5999,6.5989,6.5932,6.6033,6.6046,6.6137,6.5948,6.6291,6.6304,6.6316,6.6494,6.6524,6.655,0,0,0,0,0,6.6011,6.6141,6.6091,6.6101,6.6134,6.6193,6.6196,6.6127,6.6046,6.6105,6.6073,6.599,6.6121,6.6044,6.6057,6.6152,6.6285,6.63,6.6315,6.6481,6.6518,6.6549,0,0,0,0,0,0,6.6185,6.6135,6.6079,6.6202,6.6203,6.6165,6.6237,6.6168,6.6192,6.6175,6.6089,6.6086,6.6198,6.6184,6.61,6.6306,6.6188,6.6207,6.631,6.6345,6.6372,6.6374,6.5952,0,0,0,0,0,6.6238,6.6289,6.6243,6.6356,6.6359,6.6299,6.6322,6.6268,6.6266,6.6266,6.6241,6.6243,6.6284,6.6314,6.6349,6.6491,6.6485,6.6563,6.6591,6.6614,6.6631,6.6708,6.6742,6.6373,6.6373,6.6373,0,0,6.6347,6.6326,6.6364,6.639,6.6384,6.6441,6.63,6.6365,6.6406,6.6276,6.6367,6.6349,6.6346,6.6467,6.6519,6.646,6.6732,6.6634,6.6652,6.6657,6.6727,6.6762,6.6793,6.6384,6.6382,6.638,0,0,6.6575,6.6564,6.6658,6.6655,6.6649,6.6608,6.6631,6.6604,6.6587,6.6677,6.6581,6.663,6.6703,6.6705,6.6716,6.6948,6.6873,6.6962,6.7109,6.7184,6.7213,6.7239,6.7323,6.7354,6.6979,6.698,6.698,0,6.6712,6.6792,6.6715,6.6787,6.6802,6.6687,6.6782,6.6784,6.679,6.6804,6.6737,6.6828,6.6817,6.6939,6.6996,6.7008,6.7033,6.6964,6.7215,6.724,6.7262,6.7342,6.7374,6.6991,6.699,6.6988,6.6987,0,6.6962,6.7019,6.7096,6.7105,6.7129,6.7212,6.715,6.7184,6.7129,6.7096,6.7191,6.7175,6.7206,6.723,6.7177,6.7345,6.7309,6.723,6.711,6.731,6.7383,6.7413,6.7007,6.7003,6.6999,6.6997,0,0,6.7298,6.7264,6.7294,6.7297,6.7283,6.7326,6.7406,6.7436,6.7468,6.7476,6.7542,6.7608,6.7535,6.7548,6.7495,6.7561,6.7749,6.7474,6.7472,6.7527,6.7935,6.7995,6.8032,6.7699,6.7704,6.7709,6.7936,0,6.7519,6.7652,6.7586,6.7728,6.7781,6.7673,6.7743,6.7743,6.7715,6.7757,6.7726,6.7775,6.7674,6.7682,6.7742,6.7713,6.783,6.7695,6.7761,6.7764,6.7766,6.8069,6.8133,6.8348,6.7964,6.7968,6.7972,0,6.7794,6.7815,6.7963,6.794,6.796,6.8024,6.8047,6.8088,6.8087,6.8062,6.8078,6.8009,6.8088,6.797,6.8077,6.7988,6.8011,6.8001,6.8007,6.8011,6.7881,6.8083,6.8414,6.8448,6.8016,6.8013,6.8009,0,6.8028,6.8092,6.8189,6.8195,6.8171,6.8218,6.8211,6.8203,6.8226,6.8247,6.8261,6.8292,6.8309,6.8335,6.8278,6.8196,6.8395,6.8271,6.8378,6.838,6.8424,6.8422,6.8765,6.8438,6.8438,6.8437,6.8436,0,6.8282,6.8377,6.8293,6.8353,6.8457,6.8381,6.8486,6.8467,6.8461,6.8517,6.8425,6.848,6.84,6.8447,6.8403,6.8501,6.8509,6.8492,6.848,6.8501,6.8503,6.8515,6.8499,6.8446,6.8444,6.8442,6.8441,0,6.8559,6.8507,6.8606,6.8575,6.857,6.8648,6.8623,6.8678,6.8644,6.8716,6.8728,6.8676,6.8727,6.8672,6.8719,6.869,6.8822,6.8786,6.8822,6.8813,6.8923,6.8914,6.9286,6.9332,6.8975,6.8978,6.8981,0,6.8726,6.8796,6.8774,6.8804,6.8802,6.8852,6.8875,6.8804,6.8832,6.8837,6.8893,6.8936,6.8966,6.9053,6.902,6.9056,6.9022,6.915,6.9027,6.9047,6.9026,6.9023,6.903,6.9176,6.918,6.9183,6.9186,0,6.9027,6.8998,6.9035,6.9064,6.9094,6.9114,6.9126,6.9156,6.9083,6.912,6.917,6.9194,6.9243,6.9288,6.9314,6.9308,6.9237,6.9225,6.9252,6.9275,6.9294,6.9287,6.8892,6.9217,6.9214,6.9212,6.921,6.9209,6.9255,6.9313,6.9307,6.9352,6.9354,6.9368,6.9419,6.9392,6.9433,6.9466,6.9422,6.9486,6.9484,6.9513,6.9515,6.9565,6.9511,6.9549,6.9559,6.957,6.9587,6.9286,6.9569,6.9568,6.9568,6.9567,6.9566,0,6.9553,6.9544,6.9586,6.9606,6.9642,6.9571,6.9581,6.9617,6.9674,6.9678,6.971,6.977,6.9814,6.9785,6.9822,6.9868,6.9836,6.988,6.9877,6.9877,6.9633,6.9606,6.9905,6.9905,6.9905,6.9905,6.9905,6.9905,6.9712,6.9808,6.9779,6.9876,6.9866,6.9927,6.994,6.9953,6.9956,7.0027,7.0063,7.0043,7.0035,7.0072,7.0109,7.01,7.0118,7.0175,7.0154,6.9927,6.9894,6.9862,6.9837,7.0179,7.018,7.0394,7.0396,7.0397]},{"header":{"parameterUnit":"m.s-1","parameterCategory":1,"la1":30.2991,"la2":30.254,"lo1":-89.0895,"lo2":-89.0444,"dy":0.0017,"dx":0.0017,"nx":28,"ny":28,"refTime":"2025-03-08T03:00:00:Z","depth":0,"parameterNumber":3,"parameterNumberName":"V-component_of_WINDS"},"data":[0,0,0,0,0,0,0,0,0,0,0,0,0,0,0,0,0,0,0,0,0,0,0,0,0,0,0,0,0,0,0,0,0,0,0,0,0,0,0,0,0,0,0,0,0,0,0,0,0,0,0,0,0,0,0,0,0,0,-3.707,-3.7071,0,-3.7132,-3.7133,-3.7134,-3.7117,-3.7115,-3.7114,-3.7113,-3.7178,-3.7181,-3.7184,0,0,0,0,0,0,0,0,0,0,0,0,0,-3.6939,-3.6941,-3.707,-3.7071,-3.7072,-3.7132,-3.7133,-3.7134,-3.7117,-3.7115,-3.7114,-3.7112,-3.7177,-3.7181,-3.7184,0,0,0,0,0,0,0,0,0,0,0,0,0,-3.6998,-3.6942,-3.707,-3.707,-3.7071,-3.7132,-3.7133,-3.7134,-3.7117,-3.7115,-3.7113,-3.7112,-3.7176,-3.718,-3.7185,-3.725,0,0,-3.7198,-3.72,0,0,0,0,0,0,0,0,-3.6995,-3.7003,-3.7069,-3.707,-3.7071,-3.7115,-3.7111,-3.7173,-3.7118,-3.71,-3.7113,-3.7111,-3.7159,-3.7164,-3.718,-3.7253,-3.7256,-3.7199,-3.7201,-3.7203,-3.7204,0,0,0,0,0,0,0,-3.6991,-3.7,-3.7095,-3.707,-3.7072,-3.7068,-3.7075,-3.7123,-3.7139,-3.7101,-3.71,-3.7107,-3.7159,-3.7176,-3.7182,-3.7257,-3.7198,-3.7202,-3.7205,-3.7207,-3.7388,-3.739,0,0,0,0,0,0,-3.6986,-3.6997,-3.7093,-3.7097,-3.7027,-3.7072,-3.7079,-3.7103,-3.7139,-3.7142,-3.7109,-3.7106,-3.717,-3.7177,-3.7184,-3.7264,-3.7203,-3.7207,-3.721,-3.7386,-3.7388,-3.7391,0,0,0,0,0,0,-3.6983,-3.6994,-3.709,-3.7046,-3.7058,-3.7076,-3.7103,-3.7105,-3.7122,-3.7145,-3.7148,-3.7123,-3.7168,-3.7178,-3.7234,-3.7266,-3.7209,-3.7213,-3.7383,-3.7387,-3.739,-3.7423,0,0,0,0,0,0,-3.6979,-3.6993,-3.7017,-3.7047,-3.7061,-3.7138,-3.7105,-3.7108,-3.713,-3.7127,-3.7159,-3.7162,-3.7168,-3.7228,-3.7238,-3.7271,-3.7217,-3.738,-3.7385,-3.7389,-3.7419,-3.7427,-3.7434,0,0,0,0,0,-3.6975,-3.7024,-3.7019,-3.703,-3.7091,-3.714,-3.7148,-3.7152,-3.7132,-3.7157,-3.7172,-3.7161,-3.7261,-3.7233,-3.7245,-3.728,-3.7378,-3.7384,-3.7388,-3.7416,-3.7425,-3.7433,0,0,0,0,0,0,-3.6998,-3.7028,-3.7022,-3.7083,-3.7109,-3.7137,-3.7168,-3.7162,-3.7195,-3.7191,-3.7196,-3.7203,-3.7261,-3.7276,-3.7245,-3.7346,-3.7317,-3.7324,-3.7333,-3.7343,-3.735,-3.7345,-3.722,0,0,0,0,0,-3.701,-3.7046,-3.7071,-3.7122,-3.7136,-3.715,-3.7171,-3.7173,-3.72,-3.7211,-3.723,-3.7258,-3.7296,-3.732,-3.7356,-3.7421,-3.7429,-3.7451,-3.7458,-3.7464,-3.7471,-3.7508,-3.7519,-3.7407,-3.7407,-3.7407,0,0,-3.7035,-3.7057,-3.7079,-3.7128,-3.7148,-3.7187,-3.7159,-3.7201,-3.723,-3.7218,-3.7272,-3.7287,-3.7319,-3.738,-3.7408,-3.7394,-3.7504,-3.7471,-3.7475,-3.7478,-3.7515,-3.7525,-3.7534,-3.741,-3.741,-3.7409,0,0,-3.7102,-3.7121,-3.7166,-3.7188,-3.7219,-3.7228,-3.724,-3.7269,-3.7279,-3.7333,-3.7325,-3.7361,-3.7425,-3.7448,-3.7468,-3.7546,-3.7538,-3.7557,-3.7595,-3.7632,-3.7641,-3.7649,-3.7677,-3.7688,-3.7564,-3.7564,-3.7564,0,-3.7129,-3.7186,-3.719,-3.7233,-3.7256,-3.7247,-3.7293,-3.7314,-3.7356,-3.7372,-3.7356,-3.7438,-3.7458,-3.7526,-3.7545,-3.7561,-3.7575,-3.7553,-3.7639,-3.7647,-3.7654,-3.7682,-3.7693,-3.7566,-3.7566,-3.7566,-3.7565,0,-3.722,-3.726,-3.7293,-3.7333,-3.736,-3.7404,-3.7416,-3.7442,-3.7442,-3.7454,-3.7511,-3.7535,-3.7576,-3.7593,-3.7593,-3.7661,-3.7652,-3.7638,-3.7609,-3.7667,-3.7693,-3.7704,-3.7569,-3.7568,-3.7568,-3.7567,0,0,-3.7301,-3.7344,-3.7356,-3.7376,-3.7411,-3.7442,-3.7487,-3.7528,-3.7551,-3.758,-3.7619,-3.7675,-3.7662,-3.7685,-3.7688,-3.7721,-3.7782,-3.7703,-3.7703,-3.7717,-3.7861,-3.7871,-3.7883,-3.7777,-3.7779,-3.7781,-3.7858,0,-3.7371,-3.7449,-3.7455,-3.7527,-3.7565,-3.7558,-3.7597,-3.7624,-3.7637,-3.7672,-3.7686,-3.7726,-3.7706,-3.772,-3.7751,-3.7768,-3.7811,-3.7762,-3.7815,-3.7816,-3.7807,-3.7897,-3.7908,-3.7979,-3.7868,-3.787,-3.7871,0,-3.7462,-3.7495,-3.757,-3.7601,-3.7617,-3.7653,-3.7691,-3.7724,-3.7755,-3.7762,-3.7789,-3.7788,-3.7836,-3.7806,-3.7873,-3.784,-3.7862,-3.7874,-3.7877,-3.7882,-3.7847,-3.7905,-3.8002,-3.8013,-3.7887,-3.7886,-3.7885,0,-3.7515,-3.7578,-3.7631,-3.7648,-3.7685,-3.7711,-3.7728,-3.7756,-3.7781,-3.7815,-3.7831,-3.7871,-3.7892,-3.7923,-3.7934,-3.7911,-3.8001,-3.7971,-3.8009,-3.8009,-3.8028,-3.8027,-3.8131,-3.8042,-3.8042,-3.8042,-3.8042,0,-3.7592,-3.7639,-3.7655,-3.7688,-3.7741,-3.7748,-3.78,-3.7816,-3.7842,-3.7879,-3.7876,-3.7911,-3.7923,-3.796,-3.7969,-3.8024,-3.8033,-3.8042,-3.8043,-3.8042,-3.8041,-3.8056,-3.8052,-3.8045,-3.8044,-3.8044,-3.8043,0,-3.7659,-3.7672,-3.7731,-3.7762,-3.7771,-3.7808,-3.7836,-3.7868,-3.7881,-3.7928,-3.794,-3.796,-3.8004,-3.8018,-3.8071,-3.8077,-3.8142,-3.8139,-3.8131,-3.8131,-3.8169,-3.8165,-3.8287,-3.8303,-3.8203,-3.8204,-3.8205,0,-3.7708,-3.7743,-3.7779,-3.7803,-3.7821,-3.7861,-3.7886,-3.7895,-3.7922,-3.7961,-3.7989,-3.8033,-3.8068,-3.8139,-3.8159,-3.82,-3.8199,-3.8239,-3.8205,-3.8203,-3.82,-3.8198,-3.8202,-3.8245,-3.8246,-3.8247,-3.8247,0,-3.7793,-3.7798,-3.7834,-3.7873,-3.7903,-3.7934,-3.7964,-3.7985,-3.7999,-3.8029,-3.8074,-3.8102,-3.8157,-3.82,-3.8243,-3.8261,-3.8258,-3.8258,-3.8269,-3.8268,-3.8262,-3.8267,-3.8149,-3.8255,-3.8254,-3.8254,-3.8253,-3.8253,-3.7853,-3.7885,-3.7915,-3.7956,-3.798,-3.8008,-3.8041,-3.8058,-3.8096,-3.8141,-3.8144,-3.8193,-3.8225,-3.8282,-3.8303,-3.8342,-3.8331,-3.8347,-3.8351,-3.8355,-3.8358,-3.8256,-3.835,-3.835,-3.835,-3.835,-3.8349,0,-3.7938,-3.7958,-3.7995,-3.8038,-3.807,-3.8063,-3.8097,-3.8125,-3.8168,-3.8198,-3.8233,-3.8286,-3.8329,-3.8353,-3.8397,-3.8424,-3.8423,-3.8435,-3.8433,-3.8438,-3.8365,-3.8352,-3.8435,-3.8435,-3.8435,-3.8435,-3.8435,-3.8435,-3.7986,-3.8041,-3.805,-3.8117,-3.8136,-3.8184,-3.8204,-3.8231,-3.8255,-3.8314,-3.8349,-3.8365,-3.8393,-3.8439,-3.8479,-3.8485,-3.8502,-3.8515,-3.852,-3.8452,-3.8443,-3.8434,-3.8422,-3.8518,-3.8518,-3.8589,-3.859,-3.859]}]]